Weather History for CYBW - March, 2014

Change the Weather History Date:

Thursday, March 20, 2014

  Actual Average Record
Temperature  
Mean Temperature 23 °F -  
Max Temperature 32 °F 42 °F 55 °F (1999)
Min Temperature 14 °F 20 °F -20 °F (2002)
Degree Days  
Heating Degree Days 42    
Moisture  
Dew Point 21 °F    
Average Humidity 83    
Maximum Humidity 93    
Minimum Humidity 64    
Precipitation  
Precipitation 0.00 in - - ()
Sea Level Pressure  
Sea Level Pressure 30.04 in    
Wind  
Wind Speed 16 mph ()    
Max Wind Speed 29 mph    
Max Gust Speed 37 mph    
Visibility 4.5 miles    
Events Snow    
Averages and records for this station are not official NWS values.
T = Trace of Precipitation, MM = Missing Value Source: Averaged Metar Reports

Daily Weather History Graph

Daily Weather History Graph

Search for Another Location

Airport or City:

Trip Planner

Search our weather history database for the weather conditions in past years. The results will help you decide how hot, cold, wet, or windy it might be!

Date:

Astronomy

Mar. 20, 2014 Rise Set
Actual Time 7:39 AM MDT 7:50 PM MDT
Civil Twilight 7:06 AM MDT 8:23 PM MDT
Nautical Twilight 6:27 AM MDT 9:03 PM MDT
Astronomical Twilight 5:47 AM MDT 9:43 PM MDT
Moon No Moon Rise 9:22 AM MDT (3/20)
Length of Visible Light 13h 16m
Length of Day
12h 10m
Waning Gibbous, 83% of the Moon is Illuminated
Mar 20
Waning Gibbous
Mar 23
Last Quarter
Mar 30
New
Apr 7
First Quarter
Apr 15
Full

Hourly Weather History & Observations

Time (MDT) Temp. Windchill Dew Point Humidity Pressure Visibility Wind Dir Wind Speed Gust Speed Precip Events Conditions
5:00 AM 32.0 °F 23.0 °F 21.2 °F 64% 29.78 in 15.0 mi NNW 11.5 mph 18.4 mph N/A   Scattered Clouds
5:34 AM 32.0 °F 22.1 °F 21.2 °F 64% 29.80 in 15.0 mi NNW 13.8 mph - N/A   Overcast
6:00 AM 30.2 °F 19.3 °F 24.8 °F 80% 29.81 in 14.0 mi NNW 15.0 mph - N/A   Overcast
6:11 AM 30.2 °F 20.2 °F 24.8 °F 80% 29.81 in 4.0 mi NNW 12.7 mph 19.6 mph N/A Snow Light Snow Showers
6:28 AM 30.2 °F 19.8 °F 26.6 °F 86% 29.82 in 3.0 mi NNW 13.8 mph - N/A Snow Light Snow Showers
7:00 AM 30.2 °F 20.2 °F 26.6 °F 86% 29.84 in 3.0 mi NNW 12.7 mph - N/A Snow Light Snow
7:11 AM 28.4 °F 18.0 °F 26.6 °F 93% 29.85 in 2.5 mi NW 12.7 mph - N/A Snow Light Snow
7:26 AM 28.4 °F 13.0 °F 24.8 °F 86% 29.87 in 2.0 mi NNW 28.8 mph 36.8 mph N/A Snow Light Snow Showers
7:38 AM 26.6 °F 12.4 °F 23.0 °F 86% 29.87 in 5.0 mi NNW 21.9 mph 33.4 mph N/A Snow Light Snow
7:56 AM 26.6 °F 13.4 °F 23.0 °F 86% 29.88 in 6.0 mi NNW 18.4 mph 27.6 mph N/A Snow Light Snow
8:00 AM 26.6 °F 12.4 °F 23.0 °F 86% 29.89 in 6.0 mi NNW 21.9 mph 28.8 mph N/A Snow Light Snow
8:54 AM 26.6 °F 12.4 °F 23.0 °F 86% 29.92 in 4.0 mi NNW 21.9 mph 33.4 mph N/A Snow Light Snow
9:00 AM 26.6 °F 12.0 °F 23.0 °F 86% 29.93 in 3.0 mi NNW 23.0 mph 33.4 mph N/A Snow Light Snow
9:15 AM 26.6 °F 12.0 °F 23.0 °F 86% 29.93 in 2.0 mi NNW 23.0 mph 33.4 mph N/A Snow Light Snow
9:35 AM 26.6 °F 12.7 °F 23.0 °F 86% 29.95 in 1.2 mi NNW 20.7 mph 27.6 mph N/A Snow Light Snow
10:00 AM 26.6 °F 12.7 °F 24.8 °F 93% 29.96 in 0.8 mi NNW 20.7 mph 29.9 mph N/A Snow Light Snow
10:14 AM 26.6 °F 11.7 °F 23.0 °F 86% 29.97 in 0.6 mi NNW 24.2 mph 31.1 mph N/A Snow Light Snow
10:29 AM 26.6 °F 11.7 °F 23.0 °F 86% 29.99 in 0.8 mi NNW 24.2 mph 31.1 mph N/A Snow Light Snow
10:48 AM 26.6 °F 13.1 °F 23.0 °F 86% 30.00 in 1.2 mi NNW 19.6 mph 31.1 mph N/A Snow Light Snow
11:00 AM 26.6 °F 11.7 °F 23.0 °F 86% 30.01 in 1.2 mi NNW 24.2 mph 32.2 mph N/A Snow Light Snow
11:11 AM 26.6 °F 11.7 °F 23.0 °F 86% 30.02 in 2.0 mi NNW 24.2 mph 31.1 mph N/A Snow Light Snow
12:00 PM 26.6 °F 12.7 °F 23.0 °F 86% 30.06 in 2.0 mi NNW 20.7 mph 31.1 mph N/A Snow Light Snow
12:26 PM 26.6 °F 12.4 °F 23.0 °F 86% 30.06 in 2.5 mi NNW 21.9 mph 31.1 mph N/A Snow Light Snow
1:00 PM 26.6 °F 13.4 °F 23.0 °F 86% 30.09 in 2.0 mi NNW 18.4 mph 29.9 mph N/A Snow Light Snow
1:09 PM 26.6 °F 12.7 °F 23.0 °F 86% 30.11 in 1.0 mi North 20.7 mph - N/A Snow Light Snow
1:49 PM 26.6 °F 11.4 °F 21.2 °F 80% 30.14 in 3.0 mi North 25.3 mph 32.2 mph N/A Snow Light Snow Showers
2:00 PM 26.6 °F 12.0 °F 21.2 °F 80% 30.14 in 4.0 mi North 23.0 mph 31.1 mph N/A Snow Light Snow Showers
2:55 PM 24.8 °F 9.3 °F 19.4 °F 80% 30.17 in 5.0 mi North 24.2 mph 35.7 mph N/A   Overcast
3:00 PM 24.8 °F 9.6 °F 19.4 °F 80% 30.17 in 5.0 mi North 23.0 mph 32.2 mph N/A   Overcast
4:00 PM 23.0 °F 6.9 °F 17.6 °F 80% 30.21 in 9.0 mi NNE 24.2 mph 33.4 mph N/A   Overcast
5:00 PM 23.0 °F 8.3 °F 15.8 °F 74% 30.25 in 10.0 mi North 19.6 mph 27.6 mph N/A   Overcast
6:00 PM 19.4 °F 4.1 °F 14.0 °F 80% 30.31 in 7.0 mi North 18.4 mph 24.2 mph N/A   Overcast
6:08 PM 19.4 °F 4.5 °F 14.0 °F 80% 30.32 in 7.0 mi North 17.3 mph 24.2 mph N/A Snow Light Snow Showers
6:46 PM 17.6 °F 1.7 °F 12.2 °F 79% 30.34 in 7.0 mi North 18.4 mph 27.6 mph N/A   Overcast
7:00 PM 17.6 °F 3.7 °F 12.2 °F 79% 30.35 in 5.0 mi North 13.8 mph 24.2 mph N/A Snow Light Snow
8:00 PM 15.8 °F 2.1 °F 12.2 °F 86% 30.39 in 3.0 mi NNE 12.7 mph - N/A Snow Light Snow
9:00 PM 14.0 °F -0.8 °F 10.4 °F 86% 30.43 in 4.0 mi North 13.8 mph - N/A Snow Light Snow
10:00 PM 14.0 °F 2.9 °F 8.6 °F 79% 30.25 in 3.0 mi North 8.1 mph - N/A Snow Light Snow